Home > Weather > Fort Myers > Past weeks

Flag for USA Past Weather in Fort Myers, Florida, USA — Yesterday and Last 2 Weeks

Now
79 °F

Sunny.


Feels Like: 83 °F
Forecast: 77 / 90 °F
Wind: 6 mph from East

Location: Page Field

Current Time: Jun 25, 2016 at 8:23:38 AM

Latest Report: Jun 25, 2016 at 7:53 AM


Visibility: 10 mi

Pressure: 30.08 "Hg

Humidity: 88%

Dew Point: 75 °F

Location of Fort MyersLocation

Past Weather in Fort Myers — Graph

°F

Fort Myers Temperature Yesterday

Maximum temperature yesterday: 90 °F (at 11:53 AM)
Minimum temperature yesterday: 77 °F (at 4:53 AM)
Average temperature yesterday: 82 °F

High & Low Weather Summary for the Past Weeks

 TemperatureHumidityPressure
High93 °F (Jun 23, 1:53 PM)100% (Jun 11, 12:53 AM)30.16 "Hg (Jun 11, 12:53 AM)
Low71 °F (Jun 21, 4:53 AM)45% (Jun 15, 4:53 PM)29.93 "Hg (Jun 13, 6:53 PM)
Average82 °F78%30.06 "Hg
* Reported Jun 10 6:53 AM — Jun 25 6:53 AM, Fort Myers, Weather by CustomWeather, © 2016

Note: Actual official high and low records may vary slightly from our data, if they occured in-between our weather recording intervals... More about our weather records

Advertising

Fort Myers Weather History for the Previous 24 Hours

Scroll right to see more
 ConditionsComfort  
Time TempWeatherWind HumidityBarometerVisibility
6:53 AM
Sat, Jun 25
76 °FClear.No wind94%30.06 "Hg10 mi
5:53 AM76 °FClear.3 mph97%30.05 "Hg10 mi
4:53 AM77 °FClear.3 mph94%30.05 "Hg10 mi
3:53 AM78 °FClear.3 mph93%30.05 "Hg10 mi
2:53 AM78 °FClear.No wind93%30.06 "Hg10 mi
1:53 AM78 °FClear.5 mph90%30.07 "Hg10 mi
12:53 AM78 °FClear.3 mph90%30.08 "Hg10 mi
11:53 PM
Fri, Jun 24
79 °FClear.5 mph88%30.08 "Hg10 mi
10:53 PM80 °FPassing clouds.No wind85%30.09 "Hg10 mi
9:53 PM80 °FPassing clouds.No wind87%30.06 "Hg10 mi
8:53 PM81 °FPassing clouds.3 mph82%30.07 "Hg10 mi
7:53 PM81 °FPassing clouds.8 mph91%30.05 "Hg10 mi
6:53 PM82 °FPassing clouds.No wind85%30.04 "Hg10 mi
5:53 PM81 °FScattered clouds.No wind82%30.05 "Hg10 mi
5:04 PM80 °FOvercast.3 mph81%30.06 "Hg10 mi
4:03 PM79 °FThundershowers. Cloudy.8 mph82%30.06 "Hg3 mi
3:59 PM79 °FThundershowers. Mostly cloudy.9 mph82%30.06 "Hg1 mi
2:53 PM89 °FThundershowers. Broken clouds.9 mph61%30.07 "Hg10 mi
1:53 PM90 °FPartly sunny.No wind50%30.08 "Hg10 mi
12:53 PM90 °FSunny.3 mph50%30.10 "Hg10 mi
11:53 AM90 °FSunny.5 mph52%30.11 "Hg10 mi
10:53 AM87 °FPassing clouds.No wind59%30.12 "Hg10 mi
9:53 AM86 °FSunny.3 mph70%30.12 "Hg10 mi
8:53 AM82 °FSunny.5 mph82%30.11 "Hg10 mi
Weather by CustomWeather, © 2016

See weather overviewHow to use our weather pages